MMS 2

Last updated on Sun Apr 12 2026 00:02:44 GMT+0000 (Coordinated Universal Time)

1 40483U 15011B 26101.58335647 -.00001083 00000+0 00000+0 0 9999 2 40483 71.1602 349.7314 8390252 165.9057 344.9951 0.28115542 1319
UTC large
Height (km)
Speed (km/s)
/
Latitude / Longitude
Inclination (degrees)
Orbital Period (minutes)
Azimuth
Elevation
Range (km)
Doppler Factor

Next 0 passes for location: London (51.5072 / 0.1276)

Sorry there are no passes over London.
MMS 2